LiveATC.Net - Listen to live air traffic control over the Internet!

ICAO: KCNO  IATA: CNO   Airport: Chino Airport
City: Chino   State/Province: California
Country: United States   Continent: North America
KCNO METAR Weather: KCNO 241753Z 11007KT 10SM -RA FEW055 SCT070 BKN110 BKN200 20/16 A3012 RMK AO2 LTG DSNT S AND SW RAB14E28B44 SLP194 P0000 60007 T02000156 10200 20183 50007
KCNO Flight Activity (FlightAware)
KCNO Airport Info   (AirNav) (iFlightPlanner)
KCNO VFR Sectional Chart   (iFlightPlanner) 
KCNO IFR Low Chart   (iFlightPlanner) 
KCNO Tower
Feed Status: UP   Listeners: 0
Listen right in your browser - requires Flash (in browser, requires Flash)
Click here to listen with your own player (launches your MP3 player)
KCNO Tower Audio Archives
Chino Tower118.500


Unauthorized use prohibited. See Terms of Service

Find LiveATC Audio Streams

Airport/ARTCC Code

(e.g., 124.400, 128.75)
Site-wide search

Browse LiveATC Feeds
LiveATC Coverage Map
Top 50 LiveATC Feeds
Bad Weather Areas

Offer a LiveATC Feed
Press Inquiries

LiveATC on iPhone
LiveATC on Android

Windows Phone
Windows 8/10

LiveATC Mobile
(Mobile browser)

ATC Audio Archives
Interesting Recordings

LiveATC Forums

Home Page
Make a Donation
LiveATC Store

Terms of Use
Privacy Policy

Canadian Air Freqs


FAA Airport Status
Nat'l Airspace Status
Arrival Demand Charts

Server Software By: